Погода в Бомнаке

Погода в Бомнаке : погода сейчас, прогноз погоды и архив. Всё, что Вы хотите узнать о погоде в Бомнаке!

Поиск расширенной информации на нашем сайте:

Другие новости

Новости СМИ2

Главная страница сайта

Новости сайта

02.10.2013

Напоминаем, что на нашем новом сайте вы можете получить высокодетализированные прогнозы погоды по пунктам России, СНГ и мира (включающие важные для авиации метеовеличины, такие как направление и скорость ветра, видимость, явления погоды, количество и форма облачности, нижняя и верхняя граница облачности), а также ознакомиться с разнообразными материалами по авиационной метеорологии и подборкой полезных ссылок на эту тему.

Сайт Метеоцентр.Азия посвящён разработке технологий оптимизации авиаметеорологического обслуживания, включая проектирование и перспективное создание нескольких автоматизированных авиаметеорологических систем:
- система выпуска высокодетальных прогностических карт явлений погоды для нижнего воздушного пространства по России и ближнему зарубежью;
- система верификации прогнозов TAF (выпускаемых синоптиками официальных АМСГ РФ и ближнего зарубежья) и AUTOTAF (выпускаемых сайтом Метеоцентр.Азия) - выявление ошибок, онлайн-сопоставление с фактической погодой METAR, автоматическое внесение коррективов в прогнозы при резком отклонении фактической погоды от прогноза, подсчёт оправдываемости прогнозов по элементам и в целом;
- система обработки, анализа и отображения авиаметеорологической информации для применения провайдерами метеорологической информации.


Погода в Бомнаке - сегодня

Время (UTC), дата Ветер
(°,м/с) 
Видим.   Явления Облачность Т
(°С)
Тd
(°С)
f(%) Тe
(°С)
Pmin
(гПа)
dP
(гПа)
Po
(мм)
O2
(г/м3)
Тmin Tmax R s Состояние
почвы
21 13.01.17 330 (СЗ) 20000 м    3/0 верхняя 
[Ci fib]
-23.1 -26.2 76 -26  1035.1  1.1  739  327           
00 14.01.17 180 (Ю) 20000 м    4/0 средняя, верхняя 
[Ac trans|Ci fib]
-25.4 -27.9 80 -26  1036.8  1.1  740  330  -26.3      20  равномерный
сухой снег
100% 
03 14.01.17 240 (ЮЗ) 20000 м    10/0 средняя 
[Ac As]
-24 -27.4 73 -24  1036.2  -0.2  739  328           
06 14.01.17 190 (Ю) 20000 м    10/0 средняя 
[Ac As]
-19.8 -23.7 71 -23  1035.3  -0.1  739  323           
09 14.01.17 120 (ЮВ) 20000 м    10/0 средняя 
[Ac As]
-21.8 -24.8 77 -22  1036.1  0.4  740  326           
12 14.01.17 120 (ЮВ) 20000 м    10/0 средняя 
[As op]
-21.2 -24.2 77 -22  1036  0.1  740  325    -19       
15 14.01.17 250 (З) 20000 м    10/0 средняя 
[As op]
-19.4 -23.3 71 -20  1035.4  -0.2  740  322           
18 14.01.17 190 (Ю) 20000 м    10/0 средняя 
[Ac As]
-19.6 -23.3 72 -20  1035.5  0.1  740  323           
21 14.01.17 110 (В) 20000 м    10/0 средняя 
[Ac As]
-20.6 -24.4 72 -21  1035.8  740  324           
00 15.01.17 тихо ()   20000 м    10/0 средняя 
[Ac As]
-20.7 -24 75 -21  1035.4  -0.4  739  324  -21.8      19  равномерный
сухой снег
100% 
03 15.01.17 170 (Ю) 20000 м    10/0 средняя, верхняя 
[Ac trans|Cs]
-18.9 -23.5 67 -19  1034.8  -0.2  739  322           
06 15.01.17 тихо ()   20000 м    10/0 средняя, верхняя 
[Ac trans|Cs]
-16.4 -23.6 54 -16  1034.2  -0.2  739  318           
09 15.01.17 160 (Ю) 20000 м    10/0 средняя, верхняя 
[Ac trans|Ci fib]
-18.5 -24.1 61 -19  1035.3  0.6  740  321           
12 15.01.17 160 (Ю) 20000 м    6/0 верхняя 
[Ci fib]
-20.5 -24 74 -21  1035.8  0.2  740  324    -15.9       
15 15.01.17 тихо ()   20000 м    ясно 
-22 -24.5 80 -22  1036  0.1  740  326           
18 15.01.17 тихо ()   20000 м    ясно 
-25.7 -28.3 79 -26  1037.2  0.4  740  331           
21 15.01.17 190 (Ю) 20000 м    3/0 верхняя 
[Ci fib]
-27.1 -29.8 78 -28  1037.3  -0.2  740  333           
00 16.01.17 330 (СЗ) 20000 м    6/0 верхняя 
[Ci fib]
-28.4 -31.4 75 -29  1038  0.5  740  335  -28.4      19  равномерный
сухой снег
100% 
03 16.01.17 180 (Ю) 20000 м    3/0 верхняя 
[Ci fib]
-23 -27 70 -23  1036.5  -0.4  740  327           
06 16.01.17 190 (Ю) 20000 м    3/0 верхняя 
[Ci fib]
-20.8 -25.2 68 -21  1035.5  -0.5  739  324           
09 16.01.17 тихо ()   20000 м    3/0 верхняя 
[Ci fib]
-21.5 -24.6 76 -22  1035.6  739  325           
12 16.01.17 тихо ()   20000 м    ясно 
-24.9 -27.2 81 -25  1036.1  0.1  739  330    -19.9       
15 16.01.17 340 (С) 20000 м    3/0 верхняя 
[Ci fib]
-26.3 -29 78 -27  1035.7  -0.7  739  331           
18 16.01.17 230 (ЮЗ) 20000 м    3/0 верхняя 
[Ci fib]
-27.3 -30.1 77 -28  1035.7  -0.2  739  332           
21 16.01.17 180 (Ю) 20000 м    3/0 верхняя 
[Ci fib]
-29.7 -32.8 74 -30  1035.9  -0.3  738  336           
Время (UTC), дата Ветер
(°,м/с) 
Видим.   Явления Облачность Т
(°С)
Тd
(°С)
f(%) Тe
(°С)
Pmin
(гПа)
dP
(гПа)
Po
(мм)
O2
(г/м3)
Тmin Tmax R s Состояние
почвы

Для получения пояснительной информации подведите курсор к названию столбца.

ПОГОДА в Бомнаке - архив

Всё, что Вы хотите узнать о погоде в Бомнаке - удобно и подробно!

Выберите нужную дату (начиная с 1 января 2015* года) и нажмите кнопку "Найти".
Будут отображены архивные сводки погоды по пункту Бомнак, начиная с указанной даты.


Отображать данные в формате CSV (для использования в таблицах Excel)


Внимание! Наш архив погоды предназначен исключительно для личного некоммерческого использования в познавательных целях. Если Вам необходимы официальные справки о состоянии погоды (для производственных, юридических, коммерческих и т.п. целей), обращайтесь в органы Росгидромета.

*Примечание: данная дата относится к архиву по метеостанциям СССР (Россия, СНГ, Балтия).
Архив по метеостанциям Зарубежной Европы и Азии (кроме Китая) хранится 10 дней, по другим регионам земного шара (Китай, Африка, Америка, Австралия, Океания) - 1 день.

Бомнак - район местоположения метеостанции


Название, широта, долгота, высота метеостанции:
Бомнак 54.7°ш. 128.9°д. 357 м над ур. моря [Российская Федерация]

Дополнительная информация

В oтличие oт бoльшинства пoгoдных сайтoв мы публикуем пoдрoбную метеoинфoрмацию в детальнoм прoфессиoнальнoм фoрмате.

Характеристики температуры и влажнoсти вoздуха измеряются на высoте 2 м в тени вдали oт зданий и деревьев.
Скoрoсть ветра измеряется на высoте 10 м (на урoвне рoста челoвека скoрoсть ветра ниже в 1.5-2 раза). Если метеoстанция нахoдится в гoрoде или в лесу, тo скoрoсть ветра занижена на 2-4 м/с пo сравнению с oткрытым местoм. Скoрoсть ветра над акватoриями крупных рек и oзёр, а также на вершинах хoлмoв на 2-5 м/с выше, чем в oбычных услoвиях.
Атмoсфернoе давление в разных тoчках местнoсти мoжет значительнo oтличаться oт давления на метеoстанции, в зависимoсти oт услoвий рельефа (при пoдъёме на 10 м давление пoнижается примернo на 1 мм рт.ст.).